Lexington Weather

Lexington, Massachusetts, USA

47°F
10/22/2019 2:41am 
  • Lexington Conditions: Mostly cloudy
  • Temperature: 46.9°F / 8.3°CWarmer 1.2°F than last hour.
  • Dew Point: 45.5°FIncreased 1.8°Fsince last hour.
  • Relative Humidity: 95%Increased 2.0% since last hour.
  • Wind: Calm, 10-min avg: Calm, gust: None
  • Barometer: 30.12 in Steady
  • Visibility: 9 miles
  • Rain Today: 0.00 in
  •   

Regional Weather Roundup
for Boston, MA

        
000
ASUS41 KBOX 211410
RWRBOX

REGIONAL WEATHER ROUNDUP
NATIONAL WEATHER SERVICE BOSTON/NORTON MA
1000 AM EDT MON OCT 21 2019

NOTE:  "FAIR" INDICATES FEW OR NO CLOUDS BELOW 12,000 FEET WITH NO 
SIGNIFICANT WEATHER AND/OR OBSTRUCTIONS TO VISIBILITY.

MAZALL-211500-
EASTERN MASSACHUSETTS
  
CITY           SKY/WX    TMP DP  RH WIND       PRES   REMARKS
BOSTON         FAIR      59  49  69 N10       30.09F                  
BEVERLY        PTSUNNY   56  50  80 N7        30.09S                  
LAWRENCE       FAIR      56  48  74 N8        30.12F                  
BEDFORD        PTSUNNY   58  48  69 N5        30.09F                  
BLUE HILL      NOT AVBL                                               
NORWOOD        PTSUNNY   61  49  64 NE9G18    30.08F                  
MARSHFIELD       N/A     59  54  82 NE8G18    30.08S                  
PLYMOUTH       PTSUNNY   56  51  84 NE16G23   30.06S                  
TAUNTON        PTSUNNY   60  49  66 NE8       30.06S                  
NEW BEDFORD    FAIR      59  50  72 NE13G23   30.04S                  
$$

MAZALL-211500-
CAPE COD AND THE ISLANDS
  
CITY           SKY/WX    TMP DP  RH WIND       PRES   REMARKS
FALMOUTH       PTSUNNY   54  54 100 NE23      30.03F                  
HYANNIS        CLOUDY    57  53  86 NE12G18   30.02F                  
CHATHAM        NOT AVBL                                               
PROVINCETOWN   FAIR      57  52  83 NE16        N/A                   
NANTUCKET      CLOUDY    55  53  93 NE20G26   30.00F                  
MARTHAS VNYRD  CLOUDY    57  54  89 NE16G23   30.02F                  
$$
 
MAZALL-211500-
CENTRAL AND WESTERN MASSACHUSETTS
  
CITY           SKY/WX    TMP DP  RH WIND       PRES   REMARKS
WORCESTER      CLOUDY    46  46 100 N9        30.09F                  
FITCHBURG      FAIR      52  46  80 E5        30.12S                  
ORANGE         FAIR      50  45  83 NW7       30.11F                  
SPRINGFIELD    MOSUNNY   49  49  99 NE7       30.09F                  
WESTFIELD      CLOUDY    49  46  90 N8        30.10F                  
NORTH ADAMS    FOG       42  41  96 W3        30.13S VSB 1/4          
PITTSFIELD     FAIR      46  44  93 CALM      30.11R                  
$$
 
RIZALL-211500-
RHODE ISLAND
  
CITY           SKY/WX    TMP DP  RH WIND       PRES   REMARKS
PROVIDENCE     PTSUNNY   56  51  84 N13       30.06F                  
NEWPORT        PTSUNNY   58  50  75 N14G20    30.04S                  
BLOCK ISLAND   CLOUDY    57  52  83 NE17G28   30.02S                  
SMITHFIELD     CLOUDY   N/A N/A N/A NE9       30.07F                  
WESTERLY       PTSUNNY   60  53  77 N10G22    30.04S                  
$$
 
CTZALL-211500-
CONNECTICUT
  
CITY           SKY/WX    TMP DP  RH WIND       PRES   REMARKS
BRADLEY INTL   FAIR      53  47  79 NE12      30.09S                  
HARTFORD       FAIR      53  47  79 N9        30.09S                  
BRIDGEPORT     FAIR      58  45  62 NE15G21   30.06F                  
DANBURY        FAIR      54  45  71 N9        30.09S                  
GROTON         CLOUDY    57  51  80 NE15      30.03F                  
NEW HAVEN      FAIR      57  49  74 N9        30.06S                  
CHESTER        FAIR      57  46  67 NE8G15    30.06S                  
MERIDEN        FAIR      54  47  77 NE10      30.08S                  
WILLIMANTIC    FAIR      55  46  71 N13       30.08R                  
OXFORD         FAIR      53  47  79 N12G18    30.08F                  
$$

MEZ002-015-021-024-NHZ003-005-008-011-012-014-VTZ005-008-211500-
NORTHERN NEW ENGLAND
  
CITY           SKY/WX    TMP DP  RH WIND       PRES   REMARKS
PORTLAND ME    FAIR      56  47  71 NE5       30.12F                  
BANGOR ME      FAIR      52  47  83 CALM      30.15S                  
CONCORD NH     CLOUDY    45  45 100 NW5       30.13F FOG              
MANCHESTER NH  FOG       49  47  93 NW8       30.11S VSB 3/4          
NASHUA NH      CLOUDY    49  49 100 N5        30.13S                  
PORTSMOUTH NH  MOSUNNY   56  47  71 N7        30.09F                  
JAFFREY NH     CLOUDY    46  44  93 VRB5      30.11F FOG              
KEENE NH       FOG       43  43 100 CALM      30.14S VSB 1/2          
BURLINGTON VT  FOG       43  41  93 CALM      30.16R VSB 1/4          
MT. WASHINGTON MOSUNNY   41  18  38 N13         N/A                   
$$

NYZ052-076-211500-
EASTERN NEW YORK
  
CITY           SKY/WX    TMP DP  RH WIND       PRES   REMARKS
ALBANY         FOG       47  45  93 N3        30.16R VSB 3/4          
NEW YORK CITY  FAIR      59  44  57 NE15      30.06S                  
$$
 
ANZALL-211500-
MARINE OBSERVATIONS
  
STATION/POSITION TIME  TEMP    WIND        PRES    VSBY  WAVE
                       AIR SEA DIR/SP/G                  HT/PER
                 (UTC) (F)     (DEG/KT/KT) (MB)    (MI)  (FT/S)
BOSTON BUOY      1250   56 57   40/ 14/ 16 1018.1          2/ 3
BUZZARDS BAY     1300   56      40/ 22/ 25 1017.0
NANTUCKET SOUND  1340      56                N/A           2/ 4
MASS BAY-STELLWA 1304   56 56   30/ 14/ 16 1018.5F  1 7/8  2/ 3
ISLE OF SHOALS   1300   53      30/ 15/ 16 1019.2
S OF BLOCK IS    1330      60                N/A           7/11
$$

......................KEY.........................
  SKY/WX - SKY CONDITION/PRESENT WEATHER
  TMP    - TEMPERATURE IN FAHRENHEIT
  DWPT   - DEWPOINT IN FAHRENHEIT
  RH     - RELATIVE HUMIDITY IN PERCENT
  WIND   - DIRECTION AND SPEED IN MPH
  PRES   - MEAN SEA LEVEL PRESSURE IN INCHES OF HG
  WCI    - WIND CHILL INDEX
  VSB    - VISIBILITY IN MILES
  HX     - HEAT INDEX
  TC     - TEMPERATURE IN CELSIUS
  VRB    - VARIABLE WIND DIRECTION
  N/A    - NOT AVAILABLE
  
      

Other recent Regional Weather Roundups

Tue Oct 22, 2:10am

Tue Oct 22, 2:00am

Tue Oct 22, 1:10am

Tue Oct 22, 1:00am

Tue Oct 22, 12:10am

Tue Oct 22, 12:00am

Mon Oct 21, 11:10pm

Mon Oct 21, 11:00pm

Mon Oct 21, 10:10pm

Mon Oct 21, 10:01pm

Mon Oct 21, 9:10pm

Mon Oct 21, 9:00pm

Mon Oct 21, 8:10pm

Mon Oct 21, 8:00pm

Mon Oct 21, 7:10pm

Mon Oct 21, 7:01pm

Mon Oct 21, 6:10pm

Mon Oct 21, 6:01pm

Mon Oct 21, 5:10pm

Mon Oct 21, 5:01pm

Mon Oct 21, 4:10pm

Mon Oct 21, 4:00pm

Mon Oct 21, 3:10pm

Mon Oct 21, 3:01pm

Mon Oct 21, 2:10pm

Mon Oct 21, 2:00pm

Mon Oct 21, 1:10pm

Mon Oct 21, 1:01pm

Mon Oct 21, 12:10pm

Mon Oct 21, 12:00pm

Mon Oct 21, 11:10am

Mon Oct 21, 11:00am

Mon Oct 21, 10:00am

Mon Oct 21, 9:10am

Mon Oct 21, 9:00am

Mon Oct 21, 7:10am

Mon Oct 21, 7:00am

Mon Oct 21, 6:10am

Mon Oct 21, 6:00am

Mon Oct 21, 5:10am

Mon Oct 21, 5:00am

Mon Oct 21, 4:10am

Mon Oct 21, 4:00am

Mon Oct 21, 3:10am

Mon Oct 21, 3:00am

Mon Oct 21, 2:10am

Mon Oct 21, 2:01am

Mon Oct 21, 1:10am

Mon Oct 21, 1:00am

Mon Oct 21, 12:10am

Mon Oct 21, 12:00am

Sun Oct 20, 11:10pm

Sun Oct 20, 11:00pm

Sun Oct 20, 10:10pm

Sun Oct 20, 10:00pm

Sun Oct 20, 9:10pm

Sun Oct 20, 9:01pm

Sun Oct 20, 8:10pm

Sun Oct 20, 8:00pm

Sun Oct 20, 7:10pm

Sun Oct 20, 7:01pm

Sun Oct 20, 6:10pm

Sun Oct 20, 6:00pm

Sun Oct 20, 5:10pm

Sun Oct 20, 5:00pm

Sun Oct 20, 4:10pm

Sun Oct 20, 4:00pm

Sun Oct 20, 3:10pm

Sun Oct 20, 3:00pm

Sun Oct 20, 2:10pm

Sun Oct 20, 2:01pm

Sun Oct 20, 1:10pm

Sun Oct 20, 1:01pm

Sun Oct 20, 12:10pm

Sun Oct 20, 12:00pm

Sun Oct 20, 11:10am

Sun Oct 20, 11:00am

Sun Oct 20, 10:10am

Sun Oct 20, 10:00am

Sun Oct 20, 9:10am

Sun Oct 20, 9:00am

Sun Oct 20, 8:10am

Sun Oct 20, 8:00am

Sun Oct 20, 7:10am

Sun Oct 20, 7:00am

Sun Oct 20, 6:10am

Sun Oct 20, 6:00am

Sun Oct 20, 5:10am

Sun Oct 20, 5:00am

Sun Oct 20, 4:10am

Sun Oct 20, 4:00am

Sun Oct 20, 3:10am

Sun Oct 20, 3:00am

Sun Oct 20, 2:10am

Sun Oct 20, 2:00am

Sun Oct 20, 1:10am

Sun Oct 20, 1:00am

Sun Oct 20, 12:10am

Sun Oct 20, 12:00am

Sat Oct 19, 11:10pm

Sat Oct 19, 11:00pm

Sat Oct 19, 10:10pm

Sat Oct 19, 10:00pm

Sat Oct 19, 9:10pm

Sat Oct 19, 9:00pm

Sat Oct 19, 8:10pm

Sat Oct 19, 8:00pm

Sat Oct 19, 7:10pm

Sat Oct 19, 7:00pm

Sat Oct 19, 6:10pm

Sat Oct 19, 6:00pm

Sat Oct 19, 5:10pm

Sat Oct 19, 5:00pm

Sat Oct 19, 4:10pm

Sat Oct 19, 4:00pm

Sat Oct 19, 3:10pm

Sat Oct 19, 3:01pm

Sat Oct 19, 2:10pm

Sat Oct 19, 2:00pm

Sat Oct 19, 1:10pm

Sat Oct 19, 1:01pm

Sat Oct 19, 12:10pm

Sat Oct 19, 12:00pm

Sat Oct 19, 11:10am

Sat Oct 19, 11:01am

Sat Oct 19, 10:10am

Sat Oct 19, 10:00am

Sat Oct 19, 9:10am

Sat Oct 19, 9:00am

Sat Oct 19, 8:10am

Sat Oct 19, 8:00am

Sat Oct 19, 7:10am

Sat Oct 19, 7:00am

Sat Oct 19, 6:10am

Sat Oct 19, 6:00am

Sat Oct 19, 5:10am

Sat Oct 19, 5:00am

Sat Oct 19, 4:10am

Sat Oct 19, 4:00am

Sat Oct 19, 3:10am

Sat Oct 19, 3:00am

Meta data:

ID: a7bb034c-8475-4216-b7c1-a2b72506ec95
Link: https://api.weather.gov/products/a7bb034c-8475-4216-b7c1-a2b72506ec95